Location: College Park
(38.9810°N, 76.9370°W)
Time: 13:54:30
(UTC-05:00)

Hubble Space Telescope - Visible Passes

Search period start: 22 February 2018 00:00
Search period end: 04 March 2018 00:00
Orbit: 537 x 541 km, 28.5° (Epoch: 21 February)

Date Brightness Start Highest point End Pass type
(mag) Time Alt. Az. Time Alt. Az. Time Alt. Az.
22 Feb 2.9 05:22:37 14° SSW 05:24:23 18° S 05:27:12 10° SE visible
23 Feb 2.7 05:12:57 17° SSW 05:14:00 18° S 05:16:54 10° SE visible
24 Feb 2.6 05:03:15 19° S 05:03:38 19° S 05:06:34 10° SE visible
25 Feb 2.7 04:53:33 19° S 04:53:33 19° S 04:56:12 10° SE visible
26 Feb 2.9 04:43:51 17° SSE 04:43:51 17° SSE 04:45:46 10° SE visible
27 Feb 3.2 04:34:10 14° SSE 04:34:10 14° SSE 04:35:18 10° SE visible
28 Feb 3.5 04:24:32 11° SSE 04:24:32 11° SSE 04:24:45 10° SSE visible
